Alghero, Italy

9:28 AM CET on January 17, 2018 (GMT +0100)
Fertilia

Weather History for LIEA - December, 2013

Change the Weather History Date:

Sunday, December 22, 2013

  Actual Average Record
Temperature  
Mean Temperature 50 °F -  
Max Temperature 64 °F 55 °F 68 °F (1998)
Min Temperature 37 °F 40 °F 26 °F (1999)
Degree Days  
Heating Degree Days 14    
Moisture  
Dew Point 45 °F    
Average Humidity 83    
Maximum Humidity 100    
Minimum Humidity 49    
Precipitation  
Precipitation 0.00 in 0.09 in - ()
Sea Level Pressure  
Sea Level Pressure 30.46 in    
Wind  
Wind Speed 2 mph ()    
Max Wind Speed 5 mph    
Max Gust Speed -    
Visibility 7.0 miles    
Events Fog    
Averages and records for this station are not official NWS values.
T = Trace of Precipitation, MM = Missing Value Source: Averaged Metar Reports

Daily Weather History Graph

Daily Weather History Graph

Search for Another Location

Airport or City:

Trip Planner

Search our weather history database for the weather conditions in past years. The results will help you decide how hot, cold, wet, or windy it might be!

Date:

Astronomy

Dec. 22, 2013 Rise Set
Actual Time 7:47 AM CET 5:03 PM CET
Civil Twilight 7:16 AM CET 5:34 PM CET
Nautical Twilight 6:42 AM CET 6:08 PM CET
Astronomical Twilight 6:08 AM CET 6:42 PM CET
Moon 10:02 PM CET (12/22) 10:34 AM CET (12/22)
Length of Visible Light 10h 17m
Length of Day
9h 15m
Waning Gibbous, 79% of the Moon is Illuminated
Dec 22
Waning Gibbous
Dec 25
Last Quarter
Jan 1
New
Jan 8
First Quarter
Jan 16
Full

Hourly Weather History & Observations

Time (CET) Temp. Windchill Dew Point Humidity Pressure Visibility Wind Dir Wind Speed Gust Speed Precip Events Conditions
12:20 AM 48.2 °F - 44.6 °F 87% 30.54 in - Variable 2.3 mph - N/A   Clear
12:50 AM 44.6 °F - 41.0 °F 87% 30.51 in - Variable 2.3 mph - N/A   Clear
1:00 AM 45 °F - 42 °F 86% 30.53 in 9 mi NNE 4.6 mph - -   Partly Cloudy
1:20 AM 48.2 °F - 44.6 °F 87% 30.51 in - North 4.6 mph - N/A   Clear
1:50 AM 44.6 °F - 42.8 °F 93% 30.51 in - Variable 2.3 mph - N/A   Clear
2:20 AM 44.6 °F - 41.0 °F 87% 30.51 in - North 1.2 mph - N/A   Clear
2:50 AM 42.8 °F - 41.0 °F 93% 30.51 in 5.0 mi Variable 1.2 mph - N/A   Unknown
3:20 AM 41.0 °F - 39.2 °F 93% 30.51 in 5.0 mi Variable 1.2 mph - N/A   Unknown
3:50 AM 42.8 °F - 41.0 °F 93% 30.51 in 5.0 mi Variable 2.3 mph - N/A   Unknown
4:00 AM 41 °F - 40 °F 96% 30.51 in 5 mi NNW 2.3 mph - -   Mist
4:20 AM 41.0 °F 39.0 °F 39.2 °F 93% 30.48 in - NNE 3.5 mph - N/A   Clear
4:50 AM 41.0 °F - 41.0 °F 100% 30.48 in - Variable 1.2 mph - N/A   Clear
5:20 AM 42.8 °F 41.1 °F 41.0 °F 93% 30.48 in - North 3.5 mph - N/A   Clear
5:50 AM 41.0 °F - 41.0 °F 100% 30.48 in - Variable 1.2 mph - N/A   Clear
6:20 AM 39.2 °F - 37.4 °F 93% 30.48 in - Calm Calm - N/A   Clear
6:50 AM 37.4 °F 34.9 °F 37.4 °F 100% 30.48 in - North 3.5 mph - N/A   Clear
7:00 AM 38 °F - 37 °F 97% 30.50 in 6 mi NNE 3.5 mph - -   Clear
7:20 AM 39.2 °F 35.9 °F 39.2 °F 100% 30.48 in - NNE 4.6 mph - N/A   Clear
7:50 AM 41.0 °F 39.0 °F 39.2 °F 93% 30.48 in 6.2 mi NE 3.5 mph - N/A Fog Shallow Fog
8:20 AM 41.0 °F 39.0 °F 41.0 °F 100% 30.48 in - North 3.5 mph - N/A   Clear
8:50 AM 41.0 °F 39.0 °F 41.0 °F 100% 30.48 in - NNE 3.5 mph - N/A   Clear
9:20 AM 46.4 °F 45.2 °F 44.6 °F 93% 30.48 in - North 3.5 mph - N/A   Clear
9:50 AM 50.0 °F - 46.4 °F 87% 30.48 in - North 3.5 mph - N/A   Clear
10:00 AM 50 °F - 47 °F 87% 30.51 in 6 mi North 2.3 mph - -   Partly Cloudy
10:20 AM 51.8 °F - 48.2 °F 88% 30.51 in - Variable 2.3 mph - N/A   Clear
10:50 AM 55.4 °F - 48.2 °F 77% 30.51 in - North 3.5 mph - N/A   Clear
11:20 AM 57.2 °F - 48.2 °F 72% 30.48 in - Variable 2.3 mph - N/A   Clear
11:50 AM 57.2 °F - 48.2 °F 72% 30.48 in 6.2 mi Variable 2.3 mph - N/A   Scattered Clouds
12:20 PM 59.0 °F - 48.2 °F 67% 30.48 in 6.2 mi Variable 2.3 mph - N/A   Partly Cloudy
12:50 PM 60.8 °F - 48.2 °F 63% 30.45 in 6.2 mi Variable 2.3 mph - N/A   Partly Cloudy
1:00 PM 60 °F - 48 °F 54% 30.46 in 16 mi NNW 2.3 mph - -   Partly Cloudy
1:20 PM 60.8 °F - 46.4 °F 59% 30.45 in 6.2 mi Variable 1.2 mph - N/A   Partly Cloudy
1:50 PM 62.6 °F - 46.4 °F 55% 30.42 in 6.2 mi Variable 2.3 mph - N/A   Partly Cloudy
2:20 PM 64.4 °F - 44.6 °F 49% 30.42 in 6.2 mi Variable 2.3 mph - N/A   Partly Cloudy
2:50 PM 62.6 °F - 46.4 °F 55% 30.42 in 6.2 mi Variable 2.3 mph - N/A   Partly Cloudy
3:20 PM 60.8 °F - 48.2 °F 63% 30.42 in - Calm Calm - N/A   Clear
3:50 PM 60.8 °F - 50.0 °F 68% 30.42 in - Calm Calm - N/A   Clear
4:00 PM 59 °F - 49 °F 60% 30.43 in 19 mi West 2.3 mph - -   Mostly Cloudy
4:20 PM 59.0 °F - 48.2 °F 67% 30.42 in - Variable 1.2 mph - N/A   Clear
4:50 PM 57.2 °F - 48.2 °F 72% 30.42 in 6.2 mi Variable 2.3 mph - N/A   Partly Cloudy
5:20 PM 57.2 °F - 50.0 °F 77% 30.42 in 6.2 mi North 3.5 mph - N/A   Partly Cloudy
5:50 PM 55.4 °F - 50.0 °F 82% 30.42 in - North 3.5 mph - N/A   Clear
6:20 PM 55.4 °F - 50.0 °F 82% 30.42 in - NNE 3.5 mph - N/A   Clear
6:50 PM 55.4 °F - 50.0 °F 82% 30.42 in - North 3.5 mph - N/A   Clear
7:00 PM 54 °F - 49 °F 77% 30.44 in 9 mi North 2.3 mph - -   Partly Cloudy
7:20 PM 53.6 °F - 48.2 °F 82% 30.42 in 6.2 mi Variable 1.2 mph - N/A   Scattered Clouds
7:50 PM 53.6 °F - 48.2 °F 82% 30.42 in 6.2 mi Calm Calm - N/A   Scattered Clouds
8:20 PM 53.6 °F - 48.2 °F 82% 30.42 in 6.2 mi Variable 1.2 mph - N/A   Scattered Clouds
8:50 PM 53.6 °F - 50.0 °F 88% 30.42 in - Variable 2.3 mph - N/A   Clear
9:20 PM 53.6 °F - 50.0 °F 88% 30.42 in - North 3.5 mph - N/A   Clear
9:50 PM 51.8 °F - 48.2 °F 88% 30.42 in - Variable 1.2 mph - N/A   Clear
10:00 PM 51 °F - 48 °F 87% 30.42 in 6 mi North 1.2 mph - -   Partly Cloudy
10:20 PM 50.0 °F - 46.4 °F 87% 30.42 in - NE 2.3 mph - N/A   Clear
10:50 PM 50.0 °F - 48.2 °F 94% 30.42 in 6.2 mi Variable 2.3 mph - N/A   Partly Cloudy
11:20 PM 46.4 °F - 44.6 °F 93% 30.42 in 6.2 mi Variable 1.2 mph - N/A   Partly Cloudy
11:50 PM 48.2 °F - 46.4 °F 93% 30.42 in 5.6 mi Calm Calm - N/A   Partly Cloudy